User: anonymous   Login
Location: Arlington
(40.6323°N, 74.1651°W)
Time: 16:03:40
(UTC+00:00)
Language:

NOAA 11 - Orbit

View from above orbital plane
View from above orbital plane
View from above satellite
View from above satellite

Ground track
Ground track

The orbit data is extracted from the following two-line orbital elements,

1 19531U 88089A   20017.03437775 -.00000024  00000-0  88394-5 0  9992
2 19531  98.4269  44.9210 0010847 197.5384 162.5417 14.15250111616253
Epoch (UTC): 17 January 2020 00:49:30
Eccentricity: 0.0010847
inclination: 98.4269°
perigee height: 833 km
apogee height: 849 km
right ascension of ascending node: 44.9210°
argument of perigee: 197.5384°
revolutions per day: 14.15250111
mean anomaly at epoch: 162.5417°
orbit number at epoch: 61625

The dashed part of the orbit path shows where the satellite is in the earth's shadow,  

DLR